sat.trackr.live / text

‹ back to catalog

STARLINK-32092

NORAD 59700 · 2024-086U

PAYLOAD ACTIVE UNKNOWN

§ Identity

Operator
Country
US
Launch date
2024-05-08
Launch site
AFETR
Launch vehicle
Mass (kg)
RCS (m²)

Purposes: comms

External: N2YO · Heavens-Above · Gunter

§ Orbital elements

Epoch: 2026-09-21T09:48:50.483232Z

Period
94.27 min
Inclination
43.0043°
Eccentricity
0.0001240
Mean motion
15.27578499 rev/d
Perigee alt
482.2 km
Apogee alt
483.9 km
Semi-major
6,861.2 km
B*
-7.5265e-6
RAAN
34.6809°
Arg perigee
269.6612°
Mean anomaly
90.4097°
Rev number
13,404

§ Raw data

STARLINK-320921 59700U 24086U   26264.40891763 -.00000469  00000+0 -75265-5 0  99992 59700  43.0043  34.6809 0001240 269.6612  90.4097 15.27578499134044

JSON: /api/v1/satellites/59700 · /tle

For live sub-satellite position, see the globe view (requires WebGL).

§ Visibility from observer

Set your observer location to see the next 7 days of passes ≥ 10°. The values pass through the URL so the page stays shareable.

No JS? Fill the form by hand. The geolocation button needs JavaScript.